| time (UTC) | temp F | wind direction | speed MPH | gust MPH | rain 1hr in | rain 24hr in | rain mn in | humidity % | barometer mb |
| 20260905222539 | 57 | 277 | 9.0 | 15.0 | 0.00 | 0.02 | 0.00 | 82 | 1010.7 |
| 20260905222039 | 57 | 277 | 9.0 | 17.0 | 0.00 | 0.02 | 0.00 | 81 | 1010.7 |
| 20260905221602 | 57 | 285 | 9.0 | 17.0 | 0.00 | 0.02 | 0.00 | 82 | 1010.8 |
| 20260905221039 | 57 | 275 | 10.0 | 17.0 | 0.00 | 0.02 | 0.00 | 82 | 1011.0 |
| 20260905220539 | 56 | 260 | 10.0 | 15.0 | 0.00 | 0.02 | 0.00 | 82 | 1010.9 |
| 20260905220104 | 56 | 276 | 8.0 | 13.0 | 0.00 | 0.02 | 0.00 | 82 | 1010.9 |
| 20260905215539 | 56 | 283 | 7.0 | 12.0 | 0.00 | 0.02 | 0.00 | 83 | 1010.9 |
| 20260905215038 | 56 | 275 | 5.0 | 10.0 | 0.00 | 0.02 | 0.00 | 83 | 1011.1 |
| 20260905214556 | 56 | 261 | 5.0 | 10.0 | 0.00 | 0.02 | 0.00 | 83 | 1011.0 |
| 20260905214039 | 56 | 302 | 5.0 | 10.0 | 0.00 | 0.02 | 0.00 | 83 | 1011.0 |
| 20260905213540 | 56 | 270 | 5.0 | 10.0 | 0.00 | 0.02 | 0.00 | 83 | 1011.3 |
| 20260905213057 | 56 | 245 | 4.0 | 9.0 | 0.00 | 0.02 | 0.00 | 84 | 1011.4 |
| 20260905212540 | 56 | 225 | 3.0 | 7.0 | 0.00 | 0.02 | 0.00 | 84 | 1011.4 |
| 20260905212039 | 56 | 267 | 2.0 | 7.0 | 0.00 | 0.02 | 0.00 | 85 | 1011.4 |
| 20260905211626 | 55 | 226 | 1.0 | 7.0 | 0.00 | 0.02 | 0.00 | 85 | 1011.4 |
| 20260905211039 | 55 | 246 | 2.0 | 7.0 | 0.00 | 0.02 | 0.00 | 86 | 1011.4 |
| 20260905210539 | 55 | 244 | 1.0 | 4.0 | 0.00 | 0.02 | 0.00 | 86 | 1011.6 |
| 20260905210055 | 55 | 0 | 1.0 | 3.0 | 0.00 | 0.02 | 0.00 | 86 | 1011.6 |
| 20260905205539 | 55 | 245 | 1.0 | 4.0 | 0.00 | 0.02 | 0.00 | 87 | 1011.7 |
| 20260905205039 | 55 | 0 | 1.0 | 4.0 | 0.00 | 0.02 | 0.00 | 87 | 1011.7 |
| 20260905204605 | 54 | 245 | 2.0 | 4.0 | 0.00 | 0.02 | 0.00 | 88 | 1011.7 |
| 20260905204039 | 54 | 245 | 0.0 | 5.0 | 0.00 | 0.02 | 0.00 | 88 | 1011.7 |
| 20260905203539 | 54 | 245 | 1.0 | 5.0 | 0.00 | 0.02 | 0.00 | 88 | 1011.6 |
| 20260905203114 | 53 | 244 | 1.0 | 4.0 | 0.00 | 0.02 | 0.00 | 88 | 1011.8 |
| 20260905202539 | 53 | 244 | 0.0 | 3.0 | 0.00 | 0.02 | 0.00 | 88 | 1011.9 |
| 20260905202039 | 53 | 244 | 0.0 | 3.0 | 0.00 | 0.02 | 0.00 | 89 | 1011.9 |
| 20260905201558 | 53 | 244 | 0.0 | 3.0 | 0.00 | 0.02 | 0.00 | 89 | 1012.0 |
| 20260905201039 | 53 | 245 | 0.0 | 2.0 | 0.00 | 0.02 | 0.00 | 89 | 1012.0 |
| 20260905200539 | 52 | 244 | 0.0 | 2.0 | 0.00 | 0.02 | 0.00 | 89 | 1012.0 |
| 20260905195541 | 52 | 0 | 0.0 | 4.0 | 0.00 | 0.02 | 0.00 | 89 | 1012.3 |
| 20260905195039 | 52 | 0 | 0.0 | 4.0 | 0.00 | 0.02 | 0.00 | 89 | 1012.2 |
| 20260905194558 | 52 | 248 | 1.0 | 6.0 | 0.00 | 0.02 | 0.00 | 90 | 1012.1 |
| 20260905194040 | 52 | 0 | 0.0 | 6.0 | 0.00 | 0.02 | 0.00 | 90 | 1012.1 |
| 20260905193539 | 52 | 100 | 1.0 | 6.0 | 0.00 | 0.02 | 0.00 | 90 | 1012.0 |
| 20260905193054 | 51 | 270 | 1.0 | 6.0 | 0.00 | 0.02 | 0.00 | 90 | 1011.9 |
| 20260905192539 | 51 | 266 | 0.0 | 6.0 | 0.00 | 0.02 | 0.00 | 90 | 1011.9 |
| 20260905192040 | 51 | 265 | 1.0 | 6.0 | 0.00 | 0.02 | 0.00 | 90 | 1011.9 |
| 20260905191600 | 51 | 258 | 2.0 | 4.0 | 0.00 | 0.02 | 0.00 | 90 | 1011.9 |
| 20260905191039 | 51 | 257 | 1.0 | 4.0 | 0.00 | 0.02 | 0.00 | 90 | 1012.0 |
| 20260905190539 | 51 | 258 | 2.0 | 12.0 | 0.00 | 0.02 | 0.00 | 90 | 1012.0 |
| 20260905185539 | 51 | 268 | 1.0 | 5.0 | 0.00 | 0.02 | 0.00 | 91 | 1011.9 |
| 20260905185042 | 51 | 215 | 0.0 | 5.0 | 0.00 | 0.02 | 0.00 | 90 | 1011.9 |
| 20260905184610 | 51 | 273 | 0.0 | 7.0 | 0.00 | 0.02 | 0.00 | 90 | 1011.9 |
| 20260905184038 | 51 | 236 | 2.0 | 7.0 | 0.00 | 0.02 | 0.00 | 90 | 1011.8 |
| 20260905183540 | 51 | 268 | 4.0 | 7.0 | 0.00 | 0.02 | 0.00 | 91 | 1011.9 |
| 20260905183059 | 51 | 253 | 2.0 | 4.0 | 0.00 | 0.02 | 0.00 | 91 | 1011.7 |
| 20260905182539 | 51 | 253 | 1.0 | 3.0 | 0.00 | 0.02 | 0.00 | 91 | 1011.7 |
| 20260905182039 | 51 | 253 | 0.0 | 3.0 | 0.00 | 0.02 | 0.00 | 91 | 1011.8 |
| 20260905181604 | 51 | 0 | 0.0 | 3.0 | 0.00 | 0.02 | 0.00 | 91 | 1011.9 |
| 20260905181040 | 51 | 253 | 0.0 | 3.0 | 0.00 | 0.02 | 0.00 | 91 | 1012.0 |
| 20260905180539 | 51 | 252 | 0.0 | 5.0 | 0.00 | 0.02 | 0.00 | 91 | 1012.0 |
| 20260905180049 | 51 | 79 | 0.0 | 5.0 | 0.00 | 0.02 | 0.00 | 91 | 1012.1 |
| 20260905175539 | 51 | 0 | 0.0 | 2.0 | 0.00 | 0.02 | 0.00 | 91 | 1012.2 |
| 20260905175041 | 51 | 88 | 0.0 | 3.0 | 0.00 | 0.02 | 0.00 | 91 | 1012.2 |
| 20260905174556 | 51 | 88 | 0.0 | 3.0 | 0.00 | 0.02 | 0.00 | 91 | 1012.2 |
| 20260905174039 | 51 | 89 | 0.0 | 2.0 | 0.00 | 0.02 | 0.00 | 91 | 1012.0 |
| 20260905173542 | 52 | 92 | 0.0 | 4.0 | 0.00 | 0.02 | 0.00 | 91 | 1012.0 |
| 20260905173056 | 52 | 92 | 0.0 | 6.0 | 0.00 | 0.02 | 0.00 | 91 | 1011.9 |
| 20260905172539 | 52 | 78 | 1.0 | 6.0 | 0.00 | 0.02 | 0.00 | 91 | 1012.0 |
| 20260905172039 | 52 | 68 | 1.0 | 6.0 | 0.00 | 0.02 | 0.00 | 92 | 1012.0 |
| 20260905171553 | 52 | 278 | 1.0 | 9.0 | 0.00 | 0.02 | 0.00 | 92 | 1012.0 |
| 20260905171039 | 52 | 267 | 2.0 | 11.0 | 0.00 | 0.02 | 0.00 | 92 | 1012.0 |
| 20260905170539 | 52 | 294 | 4.0 | 11.0 | 0.00 | 0.02 | 0.00 | 93 | 1011.9 |
| 20260905170050 | 52 | 248 | 2.0 | 6.0 | 0.00 | 0.02 | 0.00 | 92 | 1011.8 |
| 20260905165542 | 52 | 261 | 0.0 | 4.0 | 0.00 | 0.02 | 0.00 | 92 | 1011.7 |
| 20260905165039 | 52 | 205 | 1.0 | 4.0 | 0.00 | 0.02 | 0.00 | 93 | 1011.8 |
| 20260905164559 | 52 | 266 | 0.0 | 4.0 | 0.00 | 0.02 | 0.00 | 92 | 1011.8 |
| 20260905164043 | 52 | 0 | 0.0 | 4.0 | 0.00 | 0.02 | 0.00 | 92 | 1011.6 |
| 20260905163536 | 52 | 0 | 0.0 | 4.0 | 0.00 | 0.02 | 0.00 | 92 | 1011.6 |
| 20260905163054 | 52 | 82 | 1.0 | 4.0 | 0.00 | 0.02 | 0.00 | 92 | 1011.5 |
| 20260905162540 | 52 | 258 | 1.0 | 4.0 | 0.00 | 0.02 | 0.00 | 92 | 1011.6 |
| 20260905162038 | 52 | 0 | 0.0 | 3.0 | 0.00 | 0.02 | 0.00 | 92 | 1011.5 |
| 20260905161553 | 52 | 0 | 0.0 | 6.0 | 0.00 | 0.02 | 0.00 | 92 | 1011.6 |
| 20260905161036 | 52 | 0 | 1.0 | 6.0 | 0.00 | 0.02 | 0.00 | 92 | 1011.5 |
| 20260905160539 | 52 | 92 | 1.0 | 7.0 | 0.00 | 0.02 | 0.00 | 92 | 1011.6 |
| 20260905160115 | 53 | 68 | 0.0 | 7.0 | 0.00 | 0.02 | 0.00 | 92 | 1011.6 |
| 20260905155539 | 53 | 260 | 1.0 | 7.0 | 0.00 | 0.02 | 0.00 | 92 | 1011.5 |
| 20260905155041 | 53 | 32 | 1.0 | 9.0 | 0.00 | 0.02 | 0.00 | 92 | 1011.6 |
| 20260905154602 | 53 | 275 | 4.0 | 9.0 | 0.00 | 0.02 | 0.00 | 92 | 1011.6 |
| 20260905154040 | 53 | 0 | 2.0 | 9.0 | 0.00 | 0.02 | 0.00 | 92 | 1011.7 |
| 20260905153540 | 53 | 271 | 2.0 | 9.0 | 0.00 | 0.02 | 0.00 | 92 | 1011.7 |
| 20260905153053 | 53 | 236 | 1.0 | 5.0 | 0.00 | 0.02 | 0.00 | 92 | 1011.8 |
| 20260905152539 | 53 | 236 | 2.0 | 6.0 | 0.00 | 0.02 | 0.00 | 92 | 1011.9 |
| 20260905152037 | 53 | 236 | 1.0 | 6.0 | 0.00 | 0.02 | 0.00 | 92 | 1012.1 |
| 20260905151601 | 53 | 240 | 0.0 | 3.0 | 0.00 | 0.02 | 0.00 | 92 | 1012.0 |
| 20260905151039 | 53 | 240 | 1.0 | 3.0 | 0.00 | 0.02 | 0.00 | 91 | 1012.0 |
| 20260905150539 | 53 | 219 | 0.0 | 2.0 | 0.00 | 0.02 | 0.00 | 91 | 1012.0 |
| 20260905150048 | 54 | 0 | 0.0 | 4.0 | 0.00 | 0.02 | 0.00 | 92 | 1012.1 |
| 20260905145540 | 54 | 0 | 0.0 | 5.0 | 0.00 | 0.02 | 0.00 | 92 | 1012.1 |
| 20260905145039 | 54 | 60 | 0.0 | 5.0 | 0.00 | 0.02 | 0.00 | 92 | 1012.2 |
| 20260905144553 | 54 | 257 | 1.0 | 5.0 | 0.00 | 0.02 | 0.00 | 92 | 1012.2 |
| 20260905144041 | 54 | 0 | 0.0 | 3.0 | 0.00 | 0.02 | 0.00 | 92 | 1012.4 |
| 20260905143539 | 54 | 79 | 0.0 | 4.0 | 0.00 | 0.02 | 0.00 | 92 | 1012.4 |
| 20260905143056 | 54 | 78 | 1.0 | 4.0 | 0.00 | 0.02 | 0.00 | 92 | 1012.7 |
| 20260905142542 | 53 | 108 | 0.0 | 5.0 | 0.00 | 0.02 | 0.00 | 91 | 1012.7 |
| 20260905142036 | 54 | 153 | 0.0 | 5.0 | 0.00 | 0.02 | 0.00 | 91 | 1012.7 |
| 20260905141551 | 54 | 67 | 0.0 | 5.0 | 0.00 | 0.02 | 0.00 | 91 | 1012.8 |
| 20260905141035 | 54 | 81 | 2.0 | 6.0 | 0.00 | 0.02 | 0.00 | 91 | 1012.7 |
| 20260905140542 | 54 | 273 | 1.0 | 7.0 | 0.00 | 0.02 | 0.00 | 92 | 1012.8 |
| 20260905140046 | 54 | 52 | 2.0 | 7.0 | 0.00 | 0.02 | 0.00 | 92 | 1012.8 |
| 20260905135537 | 54 | 275 | 1.0 | 7.0 | 0.00 | 0.02 | 0.00 | 92 | 1012.8 |
| 20260905135040 | 54 | 273 | 3.0 | 7.0 | 0.00 | 0.02 | 0.00 | 92 | 1012.7 |
| 20260905134605 | 54 | 263 | 2.0 | 7.0 | 0.00 | 0.02 | 0.00 | 91 | 1012.9 |
| 20260905134052 | 54 | 283 | 2.0 | 7.0 | 0.00 | 0.02 | 0.00 | 91 | 1012.9 |
| 20260905133539 | 54 | 270 | 2.0 | 9.0 | 0.00 | 0.02 | 0.00 | 90 | 1012.9 |
| 20260905133052 | 54 | 257 | 1.0 | 13.0 | 0.00 | 0.02 | 0.00 | 91 | 1013.0 |
| 20260905132539 | 54 | 290 | 3.0 | 13.0 | 0.00 | 0.02 | 0.00 | 91 | 1013.0 |
| 20260905132039 | 54 | 273 | 5.0 | 11.0 | 0.00 | 0.02 | 0.00 | 91 | 1013.1 |
| 20260905131557 | 54 | 265 | 4.0 | 10.0 | 0.00 | 0.02 | 0.00 | 90 | 1012.9 |
| 20260905131039 | 54 | 252 | 3.0 | 8.0 | 0.00 | 0.02 | 0.00 | 90 | 1012.9 |
| 20260905130540 | 54 | 278 | 3.0 | 8.0 | 0.00 | 0.02 | 0.00 | 90 | 1012.9 |
| 20260905130059 | 54 | 270 | 4.0 | 9.0 | 0.00 | 0.02 | 0.00 | 90 | 1012.9 |
| 20260905125538 | 54 | 293 | 5.0 | 9.0 | 0.00 | 0.02 | 0.00 | 91 | 1012.9 |
| 20260905125040 | 54 | 294 | 6.0 | 9.0 | 0.00 | 0.02 | 0.00 | 91 | 1012.8 |
| 20260905124558 | 53 | 283 | 4.0 | 8.0 | 0.00 | 0.02 | 0.00 | 91 | 1013.0 |
| 20260905124039 | 53 | 278 | 2.0 | 6.0 | 0.00 | 0.02 | 0.00 | 90 | 1013.1 |
| 20260905123539 | 53 | 278 | 1.0 | 2.0 | 0.00 | 0.02 | 0.00 | 89 | 1013.1 |
| 20260905123054 | 53 | 278 | 0.0 | 2.0 | 0.00 | 0.02 | 0.00 | 89 | 1013.1 |
| 20260905122540 | 54 | 278 | 2.0 | 4.0 | 0.00 | 0.02 | 0.00 | 89 | 1013.1 |
| 20260905122038 | 54 | 278 | 1.0 | 4.0 | 0.00 | 0.02 | 0.00 | 89 | 1013.0 |
| 20260905121601 | 54 | 278 | 0.0 | 4.0 | 0.00 | 0.02 | 0.00 | 89 | 1013.0 |
| 20260905121040 | 54 | 278 | 0.0 | 4.0 | 0.00 | 0.02 | 0.00 | 89 | 1013.0 |
| 20260905120539 | 54 | 278 | 0.0 | 8.0 | 0.00 | 0.02 | 0.00 | 89 | 1013.3 |
| 20260905120115 | 55 | 278 | 1.0 | 9.0 | 0.00 | 0.02 | 0.00 | 89 | 1013.3 |
| 20260905115539 | 55 | 32 | 4.0 | 12.0 | 0.00 | 0.02 | 0.02 | 89 | 1013.2 |
| 20260905115039 | 55 | 271 | 6.0 | 14.0 | 0.00 | 0.02 | 0.02 | 89 | 1013.2 |
| 20260905114555 | 55 | 244 | 7.0 | 14.0 | 0.00 | 0.02 | 0.02 | 90 | 1013.1 |
| 20260905114039 | 55 | 282 | 8.0 | 14.0 | 0.00 | 0.02 | 0.02 | 90 | 1013.1 |
| 20260905113540 | 54 | 257 | 7.0 | 12.0 | 0.00 | 0.02 | 0.02 | 90 | 1013.0 |
| 20260905113050 | 54 | 286 | 6.0 | 12.0 | 0.00 | 0.02 | 0.02 | 90 | 1012.9 |
| 20260905112541 | 53 | 236 | 3.0 | 9.0 | 0.00 | 0.02 | 0.02 | 89 | 1012.9 |
| 20260905112039 | 53 | 67 | 3.0 | 9.0 | 0.00 | 0.02 | 0.02 | 89 | 1012.8 |
| 20260905111611 | 54 | 248 | 1.0 | 9.0 | 0.00 | 0.02 | 0.02 | 89 | 1012.8 |
| 20260905111039 | 53 | 30 | 3.0 | 9.0 | 0.00 | 0.02 | 0.02 | 89 | 1013.0 |
| 20260905110539 | 53 | 268 | 3.0 | 9.0 | 0.00 | 0.02 | 0.02 | 89 | 1013.2 |
| 20260905110100 | 53 | 297 | 2.0 | 8.0 | 0.00 | 0.02 | 0.02 | 88 | 1013.1 |
| 20260905105536 | 54 | 253 | 4.0 | 8.0 | 0.00 | 0.02 | 0.02 | 88 | 1013.2 |
| 20260905105039 | 54 | 289 | 4.0 | 18.0 | 0.00 | 0.02 | 0.02 | 88 | 1013.3 |
| 20260905104553 | 54 | 55 | 7.0 | 25.0 | 0.00 | 0.02 | 0.02 | 88 | 1012.9 |
| 20260905104040 | 54 | 267 | 14.0 | 25.0 | 0.00 | 0.02 | 0.02 | 88 | 1012.8 |
| 20260905103539 | 54 | 275 | 13.0 | 19.0 | 0.00 | 0.02 | 0.02 | 87 | 1012.9 |
| 20260905103053 | 54 | 294 | 9.0 | 19.0 | 0.00 | 0.02 | 0.02 | 87 | 1013.1 |
| 20260905102539 | 54 | 271 | 11.0 | 19.0 | 0.00 | 0.02 | 0.02 | 86 | 1013.4 |
| 20260905102039 | 55 | 244 | 6.0 | 19.0 | 0.00 | 0.02 | 0.02 | 86 | 1013.6 |
| 20260905101547 | 55 | 249 | 10.0 | 19.0 | 0.00 | 0.02 | 0.02 | 85 | 1013.5 |
| 20260905101039 | 55 | 279 | 11.0 | 18.0 | 0.00 | 0.02 | 0.02 | 85 | 1013.2 |
| 20260905100539 | 54 | 278 | 10.0 | 18.0 | 0.00 | 0.02 | 0.02 | 85 | 1013.1 |
| 20260905100059 | 54 | 273 | 10.0 | 19.0 | 0.00 | 0.02 | 0.02 | 86 | 1013.1 |
| 20260905095539 | 54 | 296 | 10.0 | 19.0 | 0.00 | 0.02 | 0.02 | 87 | 1013.0 |
| 20260905095039 | 54 | 265 | 9.0 | 15.0 | 0.00 | 0.02 | 0.02 | 87 | 1013.0 |
| 20260905094558 | 54 | 275 | 8.0 | 12.0 | 0.00 | 0.02 | 0.02 | 87 | 1013.2 |
| 20260905094037 | 54 | 284 | 7.0 | 12.0 | 0.00 | 0.02 | 0.02 | 86 | 1013.1 |
| 20260905093540 | 54 | 273 | 6.0 | 13.0 | 0.00 | 0.02 | 0.02 | 86 | 1013.3 |
| 20260905093050 | 54 | 312 | 7.0 | 13.0 | 0.00 | 0.02 | 0.02 | 86 | 1013.2 |
| 20260905092544 | 53 | 44 | 6.0 | 12.0 | 0.00 | 0.02 | 0.02 | 87 | 1013.2 |
| 20260905092039 | 53 | 263 | 6.0 | 14.0 | 0.00 | 0.02 | 0.02 | 88 | 1013.1 |
| 20260905091621 | 53 | 266 | 6.0 | 14.0 | 0.00 | 0.02 | 0.02 | 88 | 1012.7 |
| 20260905091040 | 53 | 293 | 5.0 | 14.0 | 0.00 | 0.02 | 0.02 | 89 | 1012.4 |
| 20260905090539 | 53 | 271 | 4.0 | 10.0 | 0.00 | 0.02 | 0.02 | 89 | 1012.2 |
| 20260905090118 | 53 | 248 | 3.0 | 11.0 | 0.00 | 0.02 | 0.02 | 89 | 1012.3 |
| 20260905085540 | 53 | 289 | 6.0 | 13.0 | 0.00 | 0.02 | 0.02 | 89 | 1012.3 |
| 20260905085039 | 53 | 257 | 7.0 | 19.0 | 0.00 | 0.02 | 0.02 | 89 | 1012.5 |
| 20260905084605 | 53 | 276 | 11.0 | 21.0 | 0.00 | 0.02 | 0.02 | 89 | 1012.1 |
| 20260905084040 | 53 | 309 | 13.0 | 24.0 | 0.00 | 0.02 | 0.02 | 89 | 1012.5 |
| 20260905083540 | 53 | 268 | 13.0 | 24.0 | 0.00 | 0.02 | 0.02 | 90 | 1012.7 |
| 20260905083050 | 53 | 297 | 13.0 | 24.0 | 0.00 | 0.02 | 0.02 | 90 | 1013.0 |
| 20260905082540 | 53 | 270 | 11.0 | 19.0 | 0.00 | 0.02 | 0.02 | 90 | 1013.2 |
| 20260905082040 | 54 | 298 | 12.0 | 19.0 | 0.00 | 0.02 | 0.02 | 90 | 1013.6 |
| 20260905081546 | 54 | 275 | 12.0 | 18.0 | 0.00 | 0.02 | 0.02 | 90 | 1013.9 |
| 20260905081039 | 53 | 288 | 9.0 | 17.0 | 0.00 | 0.02 | 0.02 | 91 | 1013.9 |
| 20260905080543 | 54 | 263 | 11.0 | 18.0 | 0.00 | 0.02 | 0.02 | 90 | 1014.0 |
| 20260905080101 | 54 | 283 | 11.0 | 18.0 | 0.00 | 0.02 | 0.02 | 90 | 1013.9 |
| 20260905075540 | 54 | 279 | 11.0 | 18.0 | 0.00 | 0.02 | 0.02 | 89 | 1013.9 |
| 20260905075040 | 54 | 267 | 10.0 | 18.0 | 0.00 | 0.02 | 0.02 | 87 | 1014.0 |
| 20260905074551 | 54 | 272 | 13.0 | 20.0 | 0.00 | 0.02 | 0.02 | 86 | 1013.8 |
| 20260905074040 | 54 | 301 | 13.0 | 20.0 | 0.00 | 0.02 | 0.02 | 86 | 1013.6 |
| 20260905073552 | 54 | 260 | 12.0 | 20.0 | 0.00 | 0.02 | 0.02 | 86 | 1013.5 |
| 20260905073055 | 54 | 269 | 13.0 | 20.0 | 0.00 | 0.02 | 0.02 | 85 | 1013.4 |
| 20260905072540 | 55 | 288 | 12.0 | 18.0 | 0.00 | 0.02 | 0.02 | 84 | 1013.2 |
| 20260905072041 | 55 | 264 | 9.0 | 25.0 | 0.00 | 0.02 | 0.02 | 83 | 1013.3 |
| 20260905071558 | 55 | 295 | 12.0 | 25.0 | 0.00 | 0.02 | 0.02 | 83 | 1013.3 |
| 20260905071043 | 55 | 308 | 14.0 | 23.0 | 0.00 | 0.02 | 0.02 | 83 | 1013.1 |
| 20260905070539 | 54 | 273 | 13.0 | 23.0 | 0.00 | 0.02 | 0.02 | 84 | 1013.0 |
| 20260905070101 | 55 | 248 | 12.0 | 27.0 | 0.00 | 0.02 | 0.02 | 83 | 1012.9 |
| 20260905065541 | 55 | 232 | 12.0 | 27.0 | 0.00 | 0.02 | 0.02 | 82 | 1012.8 |
| 20260905065039 | 55 | 311 | 15.0 | 25.0 | 0.00 | 0.02 | 0.02 | 81 | 1012.5 |
| 20260905064550 | 55 | 300 | 15.0 | 25.0 | 0.00 | 0.02 | 0.02 | 81 | 1012.4 |
| 20260905064038 | 55 | 293 | 17.0 | 25.0 | 0.00 | 0.02 | 0.02 | 80 | 1012.4 |
| 20260905063539 | 55 | 319 | 15.0 | 30.0 | 0.00 | 0.02 | 0.02 | 81 | 1012.3 |
| 20260905063048 | 55 | 292 | 13.0 | 30.0 | 0.00 | 0.02 | 0.02 | 82 | 1012.5 |
| 20260905062538 | 55 | 284 | 16.0 | 30.0 | 0.00 | 0.02 | 0.02 | 82 | 1012.5 |
| 20260905062039 | 54 | 281 | 12.0 | 26.0 | 0.00 | 0.02 | 0.02 | 83 | 1012.5 |
| 20260905061619 | 55 | 238 | 12.0 | 26.0 | 0.00 | 0.02 | 0.02 | 83 | 1012.6 |
| 20260905061039 | 55 | 280 | 14.0 | 26.0 | 0.00 | 0.02 | 0.02 | 83 | 1012.4 |
| 20260905060539 | 55 | 245 | 15.0 | 27.0 | 0.00 | 0.02 | 0.02 | 83 | 1012.4 |
| 20260905060112 | 55 | 260 | 14.0 | 27.0 | 0.00 | 0.02 | 0.02 | 83 | 1012.3 |
| 20260905055539 | 55 | 289 | 12.0 | 27.0 | 0.00 | 0.02 | 0.02 | 83 | 1012.4 |
| 20260905055039 | 55 | 275 | 13.0 | 28.0 | 0.00 | 0.02 | 0.02 | 83 | 1012.4 |
| 20260905054555 | 55 | 306 | 15.0 | 28.0 | 0.00 | 0.02 | 0.02 | 84 | 1012.4 |
| 20260905054039 | 55 | 264 | 16.0 | 32.0 | 0.00 | 0.02 | 0.02 | 84 | 1012.5 |
| 20260905053539 | 55 | 277 | 15.0 | 32.0 | 0.00 | 0.02 | 0.02 | 84 | 1012.3 |
| 20260905053048 | 55 | 288 | 14.0 | 25.0 | 0.00 | 0.02 | 0.02 | 84 | 1012.2 |
| 20260905052543 | 55 | 313 | 14.0 | 26.0 | 0.00 | 0.02 | 0.02 | 83 | 1012.2 |
| 20260905052040 | 55 | 240 | 12.0 | 26.0 | 0.00 | 0.02 | 0.02 | 83 | 1012.3 |
| 20260905051548 | 55 | 269 | 14.0 | 26.0 | 0.00 | 0.02 | 0.02 | 82 | 1012.3 |
| 20260905051038 | 55 | 295 | 14.0 | 25.0 | 0.00 | 0.02 | 0.02 | 82 | 1012.3 |
| 20260905050539 | 55 | 255 | 16.0 | 25.0 | 0.00 | 0.02 | 0.02 | 81 | 1012.4 |
| 20260905050059 | 56 | 317 | 12.0 | 20.0 | 0.00 | 0.02 | 0.02 | 80 | 1012.4 |
| 20260905045538 | 56 | 253 | 12.0 | 24.0 | 0.00 | 0.02 | 0.02 | 79 | 1012.4 |
| 20260905045038 | 56 | 277 | 11.0 | 24.0 | 0.00 | 0.02 | 0.02 | 78 | 1012.4 |
| 20260905044556 | 56 | 287 | 9.0 | 24.0 | 0.00 | 0.02 | 0.02 | 78 | 1012.5 |
| 20260905044039 | 56 | 270 | 13.0 | 27.0 | 0.00 | 0.02 | 0.02 | 77 | 1012.4 |
| 20260905043539 | 57 | 262 | 14.0 | 29.0 | 0.00 | 0.02 | 0.02 | 78 | 1012.3 |
| 20260905043049 | 57 | 306 | 13.0 | 32.0 | 0.00 | 0.02 | 0.02 | 78 | 1012.2 |
| 20260905042539 | 57 | 273 | 17.0 | 32.0 | 0.00 | 0.02 | 0.02 | 77 | 1012.3 |
| 20260905042039 | 57 | 277 | 16.0 | 27.0 | 0.00 | 0.02 | 0.02 | 78 | 1012.3 |
| 20260905041603 | 57 | 313 | 14.0 | 25.0 | 0.00 | 0.02 | 0.02 | 79 | 1012.4 |
| 20260905041039 | 58 | 318 | 12.0 | 29.0 | 0.00 | 0.02 | 0.02 | 80 | 1012.7 |
| 20260905040540 | 58 | 289 | 12.0 | 29.0 | 0.00 | 0.02 | 0.02 | 81 | 1013.0 |
| 20260905040057 | 57 | 307 | 13.0 | 29.0 | 0.00 | 0.02 | 0.02 | 81 | 1012.9 |
| 20260905035539 | 56 | 295 | 12.0 | 26.0 | 0.00 | 0.02 | 0.02 | 82 | 1013.0 |
| 20260905035039 | 56 | 263 | 13.0 | 26.0 | 0.00 | 0.02 | 0.02 | 82 | 1013.0 |
| 20260905034602 | 56 | 296 | 11.0 | 20.0 | 0.00 | 0.02 | 0.02 | 82 | 1012.9 |
| 20260905034043 | 56 | 290 | 10.0 | 20.0 | 0.00 | 0.02 | 0.02 | 83 | 1012.9 |
| 20260905033620 | 56 | 290 | 11.0 | 24.0 | 0.00 | 0.02 | 0.02 | 82 | 1012.9 |
| 20260905033047 | 56 | 271 | 14.0 | 24.0 | 0.00 | 0.02 | 0.02 | 82 | 1012.9 |
| 20260905032541 | 56 | 263 | 12.0 | 24.0 | 0.00 | 0.02 | 0.02 | 83 | 1013.0 |
| 20260905032038 | 57 | 288 | 12.0 | 24.0 | 0.00 | 0.02 | 0.02 | 82 | 1013.1 |
| 20260905031559 | 57 | 270 | 10.0 | 22.0 | 0.01 | 0.02 | 0.02 | 83 | 1013.1 |
| 20260905031039 | 57 | 250 | 13.0 | 21.0 | 0.01 | 0.02 | 0.02 | 84 | 1013.2 |
| 20260905030538 | 56 | 258 | 11.0 | 20.0 | 0.01 | 0.02 | 0.02 | 86 | 1013.2 |
| 20260905030054 | 56 | 300 | 10.0 | 19.0 | 0.01 | 0.02 | 0.02 | 88 | 1013.3 |
| 20260905025538 | 55 | 247 | 8.0 | 16.0 | 0.02 | 0.02 | 0.02 | 87 | 1013.4 |
| 20260905025040 | 55 | 245 | 10.0 | 16.0 | 0.02 | 0.02 | 0.02 | 88 | 1013.5 |
| 20260905024600 | 55 | 244 | 9.0 | 17.0 | 0.02 | 0.02 | 0.02 | 89 | 1013.6 |
| 20260905024039 | 55 | 236 | 11.0 | 17.0 | 0.02 | 0.02 | 0.02 | 90 | 1013.7 |
| 20260905023539 | 54 | 234 | 11.0 | 18.0 | 0.02 | 0.02 | 0.02 | 91 | 1013.8 |
| 20260905023104 | 54 | 250 | 9.0 | 18.0 | 0.02 | 0.02 | 0.02 | 90 | 1013.8 |
| 20260905022538 | 54 | 260 | 12.0 | 27.0 | 0.02 | 0.02 | 0.02 | 89 | 1013.7 |
| 20260905022039 | 56 | 252 | 14.0 | 32.0 | 0.02 | 0.02 | 0.02 | 85 | 1013.7 |
| 20260905021557 | 57 | 304 | 15.0 | 32.0 | 0.00 | 0.00 | 0.00 | 81 | 1013.5 |
| 20260905021038 | 57 | 251 | 15.0 | 31.0 | 0.00 | 0.00 | 0.00 | 81 | 1013.5 |
| 20260905020542 | 57 | 273 | 12.0 | 29.0 | 0.00 | 0.00 | 0.00 | 86 | 1013.3 |
| 20260905020055 | 56 | 261 | 14.0 | 29.0 | 0.00 | 0.00 | 0.00 | 83 | 1013.6 |
| 20260905015539 | 57 | 267 | 15.0 | 29.0 | 0.00 | 0.00 | 0.00 | 80 | 1013.8 |
| 20260905015042 | 58 | 243 | 10.0 | 29.0 | 0.00 | 0.00 | 0.00 | 78 | 1013.8 |
| 20260905014554 | 58 | 252 | 14.0 | 29.0 | 0.00 | 0.00 | 0.00 | 76 | 1013.7 |
| 20260905014039 | 58 | 239 | 12.0 | 27.0 | 0.00 | 0.00 | 0.00 | 79 | 1013.8 |
| 20260905013539 | 59 | 273 | 11.0 | 27.0 | 0.00 | 0.00 | 0.00 | 78 | 1013.8 |
| 20260905013050 | 59 | 271 | 12.0 | 24.0 | 0.00 | 0.00 | 0.00 | 79 | 1013.9 |
| 20260905012540 | 58 | 281 | 15.0 | 24.0 | 0.00 | 0.00 | 0.00 | 78 | 1014.0 |
| 20260905012041 | 59 | 231 | 11.0 | 20.0 | 0.00 | 0.00 | 0.00 | 78 | 1013.9 |
| 20260905011549 | 58 | 265 | 12.0 | 24.0 | 0.00 | 0.00 | 0.00 | 79 | 1014.0 |
| 20260905011039 | 59 | 298 | 12.0 | 24.0 | 0.00 | 0.00 | 0.00 | 76 | 1014.1 |
| 20260905010539 | 59 | 292 | 12.0 | 22.0 | 0.00 | 0.00 | 0.00 | 78 | 1014.1 |
| 20260905010057 | 59 | 240 | 12.0 | 27.0 | 0.00 | 0.00 | 0.00 | 77 | 1014.0 |
| 20260905005539 | 59 | 279 | 12.0 | 27.0 | 0.00 | 0.00 | 0.00 | 78 | 1014.1 |
| 20260905005039 | 59 | 285 | 14.0 | 27.0 | 0.00 | 0.00 | 0.00 | 76 | 1014.2 |
| 20260905004557 | 59 | 319 | 12.0 | 22.0 | 0.00 | 0.00 | 0.00 | 78 | 1014.5 |
| 20260905004039 | 58 | 317 | 12.0 | 22.0 | 0.00 | 0.00 | 0.00 | 77 | 1014.7 |
| 20260905003539 | 58 | 317 | 12.0 | 22.0 | 0.00 | 0.00 | 0.00 | 76 | 1014.7 |
| 20260905003051 | 58 | 292 | 13.0 | 22.0 | 0.00 | 0.00 | 0.00 | 77 | 1014.7 |
| 20260905002539 | 58 | 259 | 11.0 | 24.0 | 0.00 | 0.00 | 0.00 | 78 | 1014.7 |
| 20260905002039 | 58 | 314 | 10.0 | 24.0 | 0.00 | 0.00 | 0.00 | 79 | 1014.7 |
| 20260905001606 | 57 | 246 | 8.0 | 20.0 | 0.00 | 0.00 | 0.00 | 81 | 1015.0 |
| 20260905001038 | 57 | 291 | 9.0 | 20.0 | 0.00 | 0.00 | 0.00 | 79 | 1015.0 |
| 20260905000539 | 57 | 236 | 10.0 | 20.0 | 0.00 | 0.00 | 0.00 | 79 | 1015.2 |
| 20260905000112 | 57 | 235 | 10.0 | 17.0 | 0.00 | 0.00 | 0.00 | 79 | 1015.3 |
| 20260904235541 | 57 | 294 | 8.0 | 16.0 | 0.00 | 0.00 | 0.00 | 80 | 1015.4 |
| 20260904235038 | 57 | 271 | 10.0 | 17.0 | 0.00 | 0.00 | 0.00 | 78 | 1015.3 |
| 20260904234557 | 57 | 272 | 11.0 | 19.0 | 0.00 | 0.00 | 0.00 | 76 | 1015.3 |
| 20260904234039 | 57 | 257 | 10.0 | 21.0 | 0.00 | 0.00 | 0.00 | 79 | 1015.3 |
| 20260904233539 | 57 | 254 | 11.0 | 21.0 | 0.00 | 0.00 | 0.00 | 77 | 1015.3 |
| 20260904233109 | 57 | 265 | 12.0 | 21.0 | 0.00 | 0.00 | 0.00 | 75 | 1015.3 |
| 20260904232538 | 57 | 263 | 11.0 | 19.0 | 0.00 | 0.00 | 0.00 | 78 | 1015.2 |
| 20260904232040 | 57 | 274 | 9.0 | 16.0 | 0.00 | 0.00 | 0.00 | 78 | 1015.3 |
| 20260904231555 | 57 | 255 | 8.0 | 15.0 | 0.00 | 0.00 | 0.00 | 79 | 1015.3 |
| 20260904231039 | 57 | 232 | 9.0 | 16.0 | 0.00 | 0.00 | 0.00 | 78 | 1015.3 |
| 20260904230539 | 57 | 252 | 9.0 | 16.0 | 0.00 | 0.00 | 0.00 | 78 | 1015.3 |
| 20260904230105 | 57 | 267 | 8.0 | 18.0 | 0.00 | 0.00 | 0.00 | 80 | 1015.3 |
| 20260904225539 | 57 | 244 | 8.0 | 18.0 | 0.00 | 0.03 | 0.00 | 79 | 1015.4 |
| 20260904225038 | 58 | 270 | 8.0 | 18.0 | 0.00 | 0.03 | 0.00 | 79 | 1015.2 |
| 20260904224601 | 58 | 243 | 9.0 | 18.0 | 0.00 | 0.03 | 0.00 | 78 | 1015.3 |
| 20260904224039 | 58 | 250 | 11.0 | 18.0 | 0.00 | 0.03 | 0.00 | 79 | 1015.4 |
| 20260904223539 | 57 | 273 | 11.0 | 18.0 | 0.00 | 0.03 | 0.00 | 79 | 1015.3 |
| 20260904223114 | 57 | 34 | 9.0 | 18.0 | 0.00 | 0.03 | 0.00 | 79 | 1015.2 |